Regional Weather Roundup
Issued by NWS

Home | Current Version | Previous Version | Graphics & Text | Print | Product List | Glossary On
Versions: 1 2 3 4 5 6 7 8 9 10 11 12 13 14 15 16 17 18 19 20 21 22 23 24 25 26 27 28 29 30 31 32 33 34 35 36 37 38 39 40 41 42 43 44 45 46 47 48 49 50
000
ASUS43 KDMX 261208
RWRIA

WEATHER ROUNDUP FOR IOWA
NATIONAL WEATHER SERVICE DES MOINES IA
700 AM CDT FRI AUG 26 2016

NOTE: "FAIR" INDICATES FEW OR NO CLOUDS BELOW 12,000 FEET WITH NO
SIGNIFICANT WEATHER AND/OR OBSTRUCTIONS TO VISIBILITY.

* - THESE STATIONS ARE NOT NWS STATIONS...THUS NOT UNDER NWS
QUALITY CONTROL.  THEY ALSO DO NOT REPORT WEATHER SUCH
AS PRECIPITATION OR FOG.

IAZ001>003-012>014-020>022-031>034-043>046-261300-
   NORTHWEST IOWA

CITY           SKY/WX    TMP DP  RH WIND       PRES   REMARKS
CARROLL *      MOCLDY    55  55 100 CALM      30.18S
CHEROKEE *     CLOUDY    53  53 100 CALM      30.19R
DENISON *      CLOUDY    55  55 100 CALM      30.17R FOG
LE MARS *      CLOUDY    52  52 100 CALM      30.20R
ORANGE CITY *  CLOUDY    55  54  94 CALM      30.19R
SHELDON *      PTCLDY    50  50 100 E3        30.17R
SIOUX CITY     CLOUDY    55  53  93 CALM      30.18R
6HR MIN TEMP:  54; 6HR MAX TEMP:  60;

SPENCER        CLOUDY    50  49  96 SE3       30.20R
6HR MIN TEMP:  49; 6HR MAX TEMP:  55;

STORM LAKE *   PTCLDY    55  55 100 E3        30.20R
$$

IAZ055>058-069>071-079>083-090>094-261300-
   SOUTHWEST IOWA

CITY           SKY/WX    TMP DP  RH WIND       PRES   REMARKS
ATLANTIC *     MOCLDY    57  55  94 N5        30.17R
AUDUBON *      MOCLDY    57  55  94 CALM      30.19R
CLARINDA *       N/A     63  63 100 MISG      30.19R
COUNCIL BLFS * CLOUDY    61  57  88 E7        30.17R
CRESTON *      MOCLDY    61  59  94 NE6       30.19R
HARLAN  *      CLOUDY    57  57 100 N5        30.20S
LAMONI         HVY RAIN  62  60  93 E12       30.19R FOG
6HR MIN TEMP:  62; 6HR MAX TEMP:  64; 6HR PCP:  0.15;

RED OAK *      CLOUDY    61  59  94 CALM      30.17R
SHENANDOAH *   CLOUDY    61 N/A N/A NE5       30.17R
$$

IAZ047>049-059>061-072>074-084-261300-
   CENTRAL IOWA

CITY           SKY/WX    TMP DP  RH WIND       PRES   REMARKS
AMES           CLOUDY    57  57 100 CALM      30.19R
6HR MIN TEMP:  56; 6HR MAX TEMP:  62;

ANKENY *         N/A    N/A N/A N/A MISG        N/A
BOONE *        MOCLDY    59  57  94 E5        30.18R
CHARITON *       N/A     64  63  94 MISG      30.17R
DES MOINES     CLOUDY    65  59  81 E8        30.16R
6HR MIN TEMP:  63; 6HR MAX TEMP:  66;

GRINNELL*      CLOUDY    62  58  89 E6        30.20R
KNOXVILLE *    CLOUDY    63  63 100 NE9       30.15F
MARSHALLTOWN   CLOUDY    57  57 100 CALM      30.19R
6HR MIN TEMP:  57; 6HR MAX TEMP:  61;

NEWTON *       CLOUDY    63  61  94 NE6       30.18R
PERRY *          N/A     56  56 100 CALM      30.18S
$$

IAZ004>006-015-016-023>025-035-036-261300-
   NORTH CENTRAL IOWA

CITY           SKY/WX    TMP DP  RH WIND       PRES   REMARKS
ALGONA *       CLEAR     54  54 100 CALM      30.20R
ESTHERVILLE    CLOUDY    50  50 100 CALM      30.19R
6HR MIN TEMP:  50; 6HR MAX TEMP:  54;

FORT DODGE *   CLOUDY    55  52  88 CALM      30.20R
MASON CITY     FOG       52  52 100 CALM      30.21R VSB<1/4
6HR MIN TEMP:  52; 6HR MAX TEMP:  59;

FOREST CITY *    N/A    N/A N/A N/A MISG        N/A
WEBSTER CITY * PTCLDY    55  55 100 SE5       30.17R
IOWA FALLS *     N/A     58  56  94 CALM      30.21R
$$

IAZ007>011-017>019-026>030-037>042-050>054-066-261300-
   NORTHEAST IOWA

CITY           SKY/WX    TMP DP  RH WIND       PRES   REMARKS
CEDAR RAPIDS   CLOUDY    63  61  93 N6        30.17R
6HR MIN TEMP:  60; 6HR MAX TEMP:  63;

CHARLES CITY * PTCLDY    54  54 100 CALM      30.19R
CLINTON *      CLOUDY    62  61  96 N3        30.17R
DECORAH *      PTCLDY    55  55 100 CALM      30.18R
DUBUQUE        CLOUDY    61  59  93 N6        30.19R
6HR MIN TEMP:  60; 6HR MAX TEMP:  64;

MONTICELLO *   CLOUDY    57  57 100 CALM      30.18R FOG
WATERLOO       CLOUDY    57  55  93 CALM      30.19R
6HR MIN TEMP:  55; 6HR MAX TEMP:  61;

$$

IAZ064-065-067-068-078-261300-
   EAST CENTRAL IOWA

CITY           SKY/WX    TMP DP  RH WIND       PRES   REMARKS
DAVENPORT      CLOUDY    63  60  90 N8        30.16R
6HR MIN TEMP:  61; 6HR MAX TEMP:  64;

IOWA CITY      CLOUDY    65  60  84 NE5       30.19R
6HR MIN TEMP:  63; 6HR MAX TEMP:  66;

MT. PLEASANT * RAIN      67  67 100 W3        30.18R
MUSCATINE *    CLOUDY    64  61  88 CALM      30.17R
QUAD CITIES    PTCLDY    65  61  87 E3        30.15R
6HR MIN TEMP:  63; 6HR MAX TEMP:  67;

$$

IAZ062-063-075>077-085>089-095>099-261300-
   SOUTHEAST IOWA

CITY           SKY/WX    TMP DP  RH WIND       PRES   REMARKS
BURLINGTON     LGT RAIN  68  66  93 NE7       30.15R
6HR MIN TEMP:  67; 6HR MAX TEMP:  69; 6HR PCP:  0.01;

FAIRFIELD *    CLOUDY    66  63  88 CALM      30.19R FOG
FORT MADISON * LGT RAIN  66  64  94 CALM      30.16R
KEOKUK *       LGT RAIN  68  66  94 CALM      30.15R
OSKALOOSA *    CLOUDY    62  62  98 CALM      30.18S
CENTERVILLE *    N/A     64  61  88 CALM      30.18S
OTTUMWA        RAIN      65  63  93 E3        30.18R FOG
6HR MIN TEMP:  63; 6HR MAX TEMP:  66; 6HR PCP:  0.04;

WASHINGTON *   CLOUDY    64  63  94 CALM      30.18R
$$

ABBREVIATIONS USED IN REMARKS
   TC - TEMPERATURES IN CELSIUS
  WCI - WIND CHILL INDEX
   HX - HEAT INDEX
  VSB - VISIBILITY
$$





USA.gov is the U.S. government's official web portal to all federal, state and local government web resources and services.